Wind_Speed
14 16 16 16 16 16 17 17 15 12 10 8 8 9 8 11 12 13 4 12 17 20 21 23 22 22 16 5 4 4 2 5 9 11 9 13 14 2 2 6 7 3 16 17 31
14 15 16 16 16 17 17 16 13 10 8 7 7 9 10 11 9 6 13 17 21 23 24 19 12 16 4 6 4 3 4 7 9 13 15 12 8 15 5 6 9 12 15 25 30
15 16 17 17 16 17 17 15 10 8 7 7 8 9 11 10 4 5 21 21 23 25 20 20 18 6 6 3 5 1 4 7 13 14 13 11 5 6 7 9 2 6 12 19 21
16 17 17 18 17 17 17 12 7 6 6 6 8 10 13 5 3 19 22 22 25 25 17 16 7 7 5 6 5 5 11 13 15 15 12 7 4 9 7 14 8 6 4 9 16
16 18 18 18 17 18 17 9 6 6 6 5 7 10 6 3 3 23 20 24 31 29 15 5 7 4 5 8 10 9 9 10 12 15 12 9 12 12 12 12 10 6 9 8 13
17 18 19 19 17 19 14 6 5 7 8 7 7 10 3 5 21 20 20 26 30 29 13 5 4 5 7 7 4 7 12 14 13 14 17 15 17 8 11 12 15 11 9 6 9
18 19 19 19 16 17 12 6 3 4 6 8 8 8 2 4 27 16 20 33 30 25 7 5 5 2 6 7 7 12 13 8 8 11 5 5 11 12 14 11 12 8 6 11 9
17 17 19 19 15 17 9 5 5 6 7 8 11 6 1 11 27 24 29 40 32 12 11 11 6 4 3 7 5 5 4 6 10 6 4 7 10 10 6 12 13 7 7 8 9
17 17 19 19 13 16 3 2 6 12 5 2 5 2 3 16 34 23 37 31 25 9 8 7 0 4 5 5 5 3 5 13 8 2 4 3 7 6 5 5 9 8 5 6 8
16 16 19 19 13 14 7 9 6 12 4 2 5 3 6 9 26 28 44 30 5 9 4 3 2 2 5 5 7 11 10 7 10 6 5 5 7 12 8 15 6 7 4 7 4
16 15 18 17 13 15 9 2 5 5 11 6 1 1 5 20 9 25 36 19 11 7 6 1 7 8 10 8 5 6 9 9 7 5 7 4 6 3 8 13 7 8 7 7 4
16 13 17 13 11 16 9 7 3 1 2 0 3 2 14 14 5 15 33 8 7 6 10 7 7 11 15 9 11 8 6 6 9 15 12 8 10 3 10 8 12 13 10 12 13
15 13 16 10 5 10 18 7 4 1 3 2 2 3 7 8 5 14 20 7 4 8 8 3 4 11 11 10 12 10 3 10 13 13 8 10 3 5 10 16 18 20 17 15 14
15 12 14 10 2 4 5 6 2 1 5 9 7 5 10 4 7 11 24 5 7 6 8 3 8 8 12 11 11 6 4 14 12 7 2 6 2 14 12 13 20 19 17 15 14
14 9 11 12 3 4 4 1 2 1 5 7 5 6 8 8 5 9 23 5 4 5 4 6 7 7 13 16 14 5 17 10 8 5 4 3 3 8 8 17 23 19 19 18 16
11 7 9 3 2 4 1 2 1 5 2 5 4 7 6 7 6 11 8 12 1 5 6 5 7 3 9 14 6 18 8 3 1 2 1 6 2 9 10 15 20 18 20 20 20
7 5 11 7 2 3 3 2 4 7 4 8 5 6 4 6 7 8 9 16 11 8 8 8 7 10 15 10 6 20 7 4 5 4 2 7 8 5 10 15 14 19 19 15 16
3 3 5 12 5 1 2 5 9 3 3 3 5 8 4 7 6 8 5 5 7 5 2 6 9 9 15 7 6 6 4 2 2 4 4 6 4 3 16 13 13 13 14 17 20
2 3 2 11 5 1 5 7 6 1 2 5 5 5 5 6 3 7 4 5 5 4 4 6 5 7 9 7 8 8 5 4 4 3 2 3 6 6 22 20 24 24 21 21 22
1 2 2 8 5 3 6 5 2 2 1 2 2 3 4 6 6 5 3 4 6 5 2 4 6 2 8 7 7 7 7 6 4 5 4 3 5 8 21 24 24 24 23 21 23
3 2 5 5 4 6 4 3 4 1 1 3 1 1 3 3 3 4 5 1 6 7 3 1 3 8 4 6 10 7 5 4 3 2 3 3 3 8 13 16 19 18 19 19 20
3 2 7 4 4 3 2 4 3 3 1 1 2 2 1 2 2 3 4 4 5 4 2 3 3 3 4 3 8 15 5 4 2 4 2 2 2 7 13 14 16 16 19 19 19
3 1 4 1 3 1 3 3 3 3 1 2 2 1 1 1 2 2 3 2 5 7 5 4 3 4 10 6 6 6 11 8 4 3 5 3 2 11 16 17 18 17 19 17 19
3 2 4 4 1 7 5 3 3 1 2 2 1 3 4 4 2 3 4 3 5 5 12 4 1 4 4 7 2 4 8 10 6 3 6 2 9 14 22 22 21 18 19 20 18
3 2 2 1 3 5 4 4 4 3 1 1 2 2 3 1 5 1 2 4 5 10 5 4 1 3 11 13 2 5 5 9 6 7 3 10 7 11 18 18 17 13 16 18 20
4 4 3 2 3 6 3 3 5 3 4 2 4 2 3 4 6 4 2 1 2 5 4 4 3 4 4 4 2 3 10 9 4 7 4 9 5 16 16 14 14 16 18 19 20
4 4 5 2 2 4 4 5 4 7 2 2 4 3 2 2 1 3 3 2 4 2 3 3 3 3 4 5 2 4 4 3 4 4 4 6 9 18 20 18 15 16 18 19 20
Wind_Direction
4 360 358 357 356 355 354 353 356 1 7 9 9 2 330 318 342 59 20 340 337 335 335 328 331 320 310 281 232 167 174 259 268 285 304 330 331 294 311 303 289 301 301 319 330
3 360 359 354 356 355 354 353 358 13 16 16 2 352 351 328 339 55 359 343 339 336 327 311 308 305 309 278 284 167 237 257 258 268 280 289 313 319 322 320 295 310 327 329 332
1 360 359 355 355 355 354 354 358 13 9 7 357 347 347 356 5 355 345 341 339 338 337 327 303 338 301 315 278 213 248 267 273 271 270 268 273 282 300 280 272 313 312 322 320
2 0 360 356 354 352 353 355 7 5 0 349 351 357 342 354 46 345 339 340 340 336 328 331 334 323 306 297 316 309 295 288 288 287 270 275 258 258 250 258 267 165 243 294 319
359 359 3 356 352 353 356 4 11 7 357 333 337 350 3 50 323 340 342 339 342 339 317 329 314 335 315 307 302 274 278 289 299 297 294 286 267 259 258 257 264 224 175 284 303
358 359 2 357 354 355 358 7 14 6 5 343 345 341 15 66 353 334 336 346 343 333 309 331 315 323 292 281 291 274 290 297 295 291 281 265 264 258 254 247 256 253 170 202 306
356 358 0 358 355 357 356 355 312 340 26 38 14 356 353 34 4 354 340 339 333 318 281 287 317 19 311 295 261 282 291 311 317 305 271 256 265 255 265 256 258 275 217 149 224
356 357 357 357 354 357 355 8 1 306 282 310 337 342 182 10 6 3 349 339 341 329 292 273 274 255 214 267 302 4 5 345 326 332 266 196 274 278 279 219 239 219 151 131 186
356 355 355 356 359 358 354 82 22 7 320 340 345 305 348 341 354 345 351 333 324 311 275 277 270 244 316 321 344 345 301 323 313 356 306 177 288 299 16 0 244 159 168 170 187
357 354 353 356 4 2 359 252 325 347 17 298 330 53 26 322 328 359 349 352 318 303 338 111 203 1 349 16 334 318 328 301 295 317 359 317 289 293 30 22 35 102 122 201 205
354 356 355 1 12 11 5 56 33 2 26 108 232 182 284 319 12 2 357 340 348 41 10 313 48 343 308 304 321 308 337 303 303 353 311 296 303 170 50 18 325 43 39 14 25
354 355 358 6 19 24 44 71 91 230 91 254 47 180 320 322 339 352 2 28 3 357 359 19 22 333 333 8 6 350 330 329 311 342 332 308 310 107 85 15 25 30 20 15 0
353 351 355 2 33 27 61 65 106 347 113 39 47 359 323 324 37 358 8 342 359 0 349 58 311 353 345 344 355 339 307 334 317 329 41 7 327 52 54 31 12 21 6 3 347
353 353 0 355 71 24 44 5 79 356 80 333 356 7 354 28 12 13 7 5 5 336 328 329 322 345 341 342 341 311 269 317 311 347 317 31 195 34 19 1 13 5 355 341 336
354 7 9 39 15 47 322 25 57 339 54 327 354 329 6 59 327 339 11 353 21 308 27 276 301 337 8 338 329 282 310 291 287 291 338 303 71 358 10 355 353 345 340 334 340
357 16 17 52 34 10 6 106 59 42 301 345 9 348 19 17 356 339 14 21 61 354 348 285 284 348 353 330 324 335 321 345 205 103 24 330 97 28 12 342 341 341 338 334 345
4 31 44 35 327 351 131 82 35 85 332 328 333 351 22 341 355 11 14 27 31 16 1 330 330 326 359 355 340 349 9 358 14 10 270 146 74 67 3 360 348 334 332 329 338
30 56 40 18 357 111 95 53 69 271 3 2 344 324 56 6 3 7 23 16 15 60 33 25 340 355 331 8 310 331 36 99 292 335 320 28 45 112 29 359 341 342 339 343 350
88 89 126 358 6 89 74 48 179 222 308 341 322 32 340 360 34 25 28 11 5 28 93 7 289 324 334 333 22 327 16 248 264 233 280 46 7 241 360 353 356 0 352 351 350
140 191 21 358 354 65 71 131 126 38 360 29 88 49 340 329 27 32 3 322 337 343 132 284 296 300 309 345 14 72 330 15 3 1 328 85 60 354 351 350 347 352 352 348 349
122 46 6 1 25 50 100 141 122 116 59 75 112 17 13 2 345 328 300 16 8 327 59 345 113 299 358 12 46 5 13 351 254 316 334 356 71 3 348 344 341 345 348 352 343
95 47 3 2 50 46 90 128 128 164 329 169 88 34 83 336 334 322 6 188 8 350 2 262 155 288 257 178 94 73 7 354 338 333 278 295 109 19 2 346 344 351 344 350 353
104 160 0 42 104 42 135 80 80 144 60 56 98 104 314 286 23 300 330 80 63 13 14 325 329 353 346 356 21 26 5 335 275 243 11 26 10 17 359 358 351 353 350 350 347
92 57 345 42 99 125 134 147 112 17 106 92 167 201 58 11 18 297 337 349 341 38 11 6 345 152 191 233 216 20 343 353 352 36 323 102 307 353 356 350 348 358 353 348 355
59 208 186 142 335 98 94 161 144 156 165 144 227 127 120 30 339 310 356 334 12 13 27 56 335 328 282 260 262 96 5 353 36 358 68 319 335 5 347 339 335 352 354 353 356
129 134 35 82 87 82 6 226 158 143 138 203 148 100 148 169 186 231 96 95 312 352 38 356 302 334 302 52 7 91 24 358 10 3 343 332 339 360 333 332 345 353 353 357 355
129 103 101 163 138 98 202 188 179 120 326 114 124 92 286 209 239 224 201 225 228 177 354 359 349 359 296 354 14 14 317 336 319 36 328 11 316 331 335 338 339 355 356 351 354
Height
836 834 831 828 825 822 820 818 814 812 811 811 811 809 807 805 805 803 803 803 800 796 794 789 787 783 780 777 775 774 787 798 784 775 762 760 758 746 745 743 743 748 745 739 730
835 833 830 828 825 822 819 817 815 813 811 810 809 808 807 805 805 804 804 801 798 795 791 788 786 783 783 778 775 778 784 778 770 765 760 759 758 752 748 745 744 743 742 736 726
835 833 831 828 825 821 819 816 815 813 812 810 810 808 807 805 805 805 802 800 797 793 789 786 783 782 781 776 773 773 778 766 762 759 755 754 753 751 748 745 738 742 745 736 733
835 832 830 828 825 821 818 815 814 813 812 811 810 809 807 807 813 805 802 799 795 791 787 785 784 784 783 782 774 777 768 763 758 754 751 752 749 748 748 743 737 734 742 744 736
835 832 829 826 823 821 817 815 815 814 812 810 809 808 807 808 809 804 801 798 793 788 786 785 785 784 784 783 777 774 765 757 755 751 751 749 746 743 741 735 735 736 737 737 742
834 832 829 826 822 820 817 815 814 814 812 811 809 807 807 814 810 804 800 797 793 788 784 783 783 782 782 778 778 765 761 756 750 746 744 746 740 742 731 732 729 729 728 731 737
834 831 828 824 821 818 816 815 813 812 812 811 810 809 810 816 808 803 799 795 790 786 783 781 782 783 782 777 764 763 763 754 749 747 740 736 740 735 729 724 719 721 726 732 741
833 830 827 823 820 818 815 814 813 812 811 811 811 811 811 809 806 801 798 788 779 779 779 779 779 778 779 771 765 767 766 770 741 737 733 737 740 726 724 726 725 725 723 728 733
833 830 827 823 819 816 813 813 813 812 811 810 811 812 813 809 804 802 797 788 779 776 776 778 780 779 776 781 784 778 784 769 753 735 735 733 736 720 719 720 723 726 726 730 732
832 830 827 822 819 815 813 812 812 813 810 809 811 816 815 817 809 806 794 784 781 774 773 776 780 785 787 790 789 781 771 768 762 741 738 735 733 720 723 726 718 725 728 733 729
832 828 826 822 819 815 811 810 815 819 816 823 824 824 822 818 811 807 796 787 782 781 791 779 795 800 787 772 771 774 769 766 754 741 742 734 732 722 727 730 730 729 733 728 731
832 828 824 822 821 817 813 816 824 828 827 821 820 822 822 818 815 811 804 800 798 801 793 795 805 789 778 768 772 770 776 773 753 742 740 733 728 729 734 742 736 733 737 731 724
831 828 824 821 821 821 820 822 823 826 828 824 821 822 821 820 821 816 810 806 806 806 808 801 797 785 782 782 780 778 775 769 765 747 746 737 733 736 748 753 746 743 744 743 743
829 827 824 821 822 822 825 825 824 825 853 836 827 827 823 818 825 821 817 814 815 817 809 800 792 788 787 785 781 789 765 762 753 758 758 740 733 754 759 759 757 762 760 754 750
827 825 823 820 823 823 825 824 824 827 863 834 832 829 828 832 839 829 823 816 826 824 817 810 797 794 789 784 776 777 762 759 753 760 753 747 753 779 765 764 766 768 761 755 748
826 824 823 823 824 824 823 824 827 846 875 843 837 838 837 837 836 833 832 823 822 823 820 809 795 787 788 778 776 773 765 757 753 764 765 751 749 783 784 788 779 774 766 752 744
824 824 822 822 825 822 822 825 842 862 843 852 852 845 842 848 843 843 854 849 854 862 866 830 808 796 788 785 781 779 787 821 799 780 761 757 769 799 798 795 791 781 775 766 759
824 822 822 821 823 823 823 837 857 857 859 856 854 849 850 856 857 853 856 868 854 870 887 861 842 814 802 794 797 796 797 821 828 775 757 744 776 796 797 800 795 790 780 768 757
823 824 823 822 822 821 829 870 883 863 862 865 859 862 862 860 867 864 866 874 861 866 886 874 846 819 806 802 799 801 823 802 790 777 771 774 789 784 791 794 788 783 781 771 761
823 824 824 823 821 821 843 873 868 863 862 862 867 866 868 869 877 881 882 868 871 859 863 872 858 825 815 805 805 811 806 813 805 790 765 782 800 810 807 802 796 786 786 779 767
822 829 826 824 823 831 871 869 866 864 862 866 868 870 870 880 875 876 882 863 862 862 857 864 879 849 823 825 833 824 842 824 813 797 795 773 810 827 825 818 808 798 795 785 780
821 836 826 825 840 857 873 859 858 863 862 863 866 867 871 870 883 884 873 869 863 864 876 865 884 888 843 823 825 832 838 833 822 810 804 793 820 831 829 821 814 807 797 789 779
826 831 826 825 855 877 859 862 862 862 865 864 867 868 867 870 895 870 864 862 862 865 868 872 892 899 862 852 836 843 842 839 832 819 824 826 811 825 826 825 820 812 804 796 786
826 841 834 834 845 855 862 864 868 864 865 864 866 868 878 879 874 879 873 866 866 865 862 869 896 889 888 874 866 866 866 848 843 837 845 829 828 830 828 824 820 817 809 795 792
825 841 836 853 856 854 863 861 866 868 866 865 867 867 877 907 901 889 876 876 869 869 872 877 900 873 864 855 851 859 869 861 861 852 854 846 832 842 841 835 828 827 820 809 799
826 834 840 852 851 862 868 868 860 863 867 866 871 866 869 891 886 898 889 882 881 878 879 877 897 876 878 844 844 856 865 866 862 856 852 848 839 845 845 839 831 828 822 814 804
818 822 826 849 857 862 866 866 860 864 864 862 864 870 871 870 873 873 874 875 879 886 875 877 880 899 890 856 864 871 892 879 868 871 868 863 859 850 843 841 838 834 825 819 812